Time,TemperatureF,DewpointF,PressureIn,WindDirection,WindDirectionDegrees,WindSpeedMPH,WindSpeedGustMPH,Humidity,HourlyPrecipIn,Conditions,Clouds,dailyrainin,SoftwareType,DateUTC
2013-04-14 00:13:00,50.2,49.1,29.47,SE,142,8.0,8.0,96,0.00,CLR,,0.00,WeatherDisplay:10.37,2013-04-13 23:13:00,
2013-04-14 00:28:00,50.4,49.3,29.44,South,189,6.0,8.0,96,0.00,CLR,,0.00,WeatherDisplay:10.37,2013-04-13 23:28:00,
2013-04-14 00:44:00,50.4,49.5,29.44,South,175,7.0,11.0,97,0.00,CLR,,0.00,WeatherDisplay:10.37,2013-04-13 23:44:00,
2013-04-14 00:58:00,50.7,50.1,29.42,South,175,9.0,10.0,98,0.00,CLR,,0.00,WeatherDisplay:10.37,2013-04-13 23:58:00,
2013-04-14 01:13:00,51.1,50.5,29.44,SSW,202,8.0,12.0,98,0.00,CLR,,0.00,WeatherDisplay:10.37,2013-04-14 00:13:00,
2013-04-14 01:28:00,51.4,50.9,29.44,SW,233,22.0,22.0,98,0.00,CLR,,0.00,WeatherDisplay:10.37,2013-04-14 00:28:00,
2013-04-14 01:43:00,51.1,50.5,29.44,SW,227,7.0,22.0,98,0.00,CLR,,0.00,WeatherDisplay:10.37,2013-04-14 00:43:00,
2013-04-14 01:58:00,50.7,50.2,29.44,SSW,195,21.0,23.0,98,0.00,CLR,,0.00,WeatherDisplay:10.37,2013-04-14 00:58:00,
2013-04-14 02:13:00,50.5,50.0,29.41,SW,224,6.0,21.0,98,0.00,CLR,,0.00,WeatherDisplay:10.37,2013-04-14 01:13:00,
2013-04-14 02:28:00,50.7,50.2,29.44,SSW,198,10.0,17.0,98,0.00,CLR,,0.00,WeatherDisplay:10.37,2013-04-14 01:28:00,
2013-04-14 02:43:00,50.7,50.2,29.44,SW,219,8.0,12.0,98,0.00,CLR,,0.00,WeatherDisplay:10.37,2013-04-14 01:43:00,
2013-04-14 02:58:00,50.7,50.2,29.44,South,182,10.0,15.0,98,0.00,CLR,,0.00,WeatherDisplay:10.37,2013-04-14 01:58:00,
2013-04-14 03:13:00,50.7,50.2,29.41,SSW,201,24.0,25.0,98,0.00,CLR,,0.00,WeatherDisplay:10.37,2013-04-14 02:13:00,
2013-04-14 03:28:00,50.5,50.0,29.44,South,180,14.0,25.0,98,0.00,CLR,,0.00,WeatherDisplay:10.37,2013-04-14 02:28:00,
2013-04-14 03:43:00,50.5,50.0,29.44,SSW,203,7.0,21.0,98,0.00,CLR,,0.00,WeatherDisplay:10.37,2013-04-14 02:43:00,
2013-04-14 03:58:00,50.2,49.6,29.44,SW,235,9.0,10.0,98,0.00,CLR,,0.00,WeatherDisplay:10.37,2013-04-14 02:58:00,
2013-04-14 04:13:00,50.2,49.6,29.44,South,187,8.0,13.0,98,0.00,CLR,,0.00,WeatherDisplay:10.37,2013-04-14 03:13:00,
2013-04-14 04:28:00,49.8,49.3,29.44,SSW,204,9.0,14.0,98,0.00,CLR,,0.00,WeatherDisplay:10.37,2013-04-14 03:28:00,
2013-04-14 04:43:00,49.6,49.1,29.44,SSW,208,6.0,14.0,98,0.00,CLR,,0.00,WeatherDisplay:10.37,2013-04-14 03:43:00,
2013-04-14 04:58:00,49.5,48.9,29.44,SW,214,9.0,9.0,98,0.00,CLR,,0.00,WeatherDisplay:10.37,2013-04-14 03:58:00,
2013-04-14 05:13:00,49.5,48.9,29.44,SSW,203,5.0,9.0,98,0.00,CLR,,0.00,WeatherDisplay:10.37,2013-04-14 04:13:00,
2013-04-14 05:28:00,50.2,49.6,29.44,SSW,212,5.0,8.0,98,0.00,CLR,,0.00,WeatherDisplay:10.37,2013-04-14 04:28:00,
2013-04-14 05:43:00,50.2,49.6,29.44,SSW,200,8.0,10.0,98,0.00,CLR,,0.00,WeatherDisplay:10.37,2013-04-14 04:43:00,
2013-04-14 05:58:00,50.4,49.8,29.41,SSW,197,9.0,19.0,98,0.00,CLR,,0.00,WeatherDisplay:10.37,2013-04-14 04:58:00,
2013-04-14 06:13:00,50.2,49.6,29.44,South,191,10.0,13.0,98,0.00,CLR,,0.00,WeatherDisplay:10.37,2013-04-14 05:13:00,
2013-04-14 06:28:00,50.4,49.8,29.41,SSW,201,13.0,15.0,98,0.00,CLR,,0.00,WeatherDisplay:10.37,2013-04-14 05:28:00,
2013-04-14 06:43:00,50.4,49.8,29.41,South,190,9.0,17.0,98,0.00,CLR,,0.00,WeatherDisplay:10.37,2013-04-14 05:43:00,
2013-04-14 06:58:00,50.4,49.8,29.41,South,184,12.0,13.0,98,0.00,CLR,,0.00,WeatherDisplay:10.37,2013-04-14 05:58:00,
2013-04-14 07:13:00,50.4,49.8,29.41,South,180,5.0,12.0,98,0.00,CLR,,0.00,WeatherDisplay:10.37,2013-04-14 06:13:00,
2013-04-14 07:28:00,49.8,49.3,29.41,SW,235,10.0,12.0,98,0.00,CLR,,0.00,WeatherDisplay:10.37,2013-04-14 06:28:00,
2013-04-14 07:43:00,49.3,48.7,29.44,South,183,3.0,8.0,98,0.00,CLR,,0.00,WeatherDisplay:10.37,2013-04-14 06:43:00,
2013-04-14 07:58:00,48.9,48.4,29.44,SSW,205,3.0,10.0,98,0.00,CLR,,0.00,WeatherDisplay:10.37,2013-04-14 06:58:00,
2013-04-14 08:13:00,48.9,48.4,29.44,SSW,201,6.0,6.0,98,0.00,CLR,,0.00,WeatherDisplay:10.37,2013-04-14 07:13:00,
2013-04-14 08:28:00,48.7,48.2,29.44,SW,219,3.0,6.0,98,0.00,CLR,,0.00,WeatherDisplay:10.37,2013-04-14 07:28:00,
2013-04-14 08:43:00,48.7,48.2,29.44,SW,231,13.0,15.0,98,0.00,CLR,,0.00,WeatherDisplay:10.37,2013-04-14 07:43:00,
2013-04-14 08:58:00,48.6,48.0,29.44,SSW,198,5.0,5.0,98,0.00,CLR,,0.00,WeatherDisplay:10.37,2013-04-14 07:58:00,
2013-04-14 09:13:00,48.6,48.0,29.44,South,183,1.0,8.0,98,0.00,CLR,,0.00,WeatherDisplay:10.37,2013-04-14 08:13:00,
2013-04-14 09:28:00,48.7,48.2,29.44,South,191,1.0,5.0,98,0.00,CLR,,0.00,WeatherDisplay:10.37,2013-04-14 08:28:00,
2013-04-14 09:43:00,48.7,48.2,29.44,SW,236,5.0,5.0,98,0.00,CLR,,0.00,WeatherDisplay:10.37,2013-04-14 08:43:00,
2013-04-14 09:58:00,48.6,48.0,29.44,South,191,5.0,7.0,98,0.00,CLR,,0.00,WeatherDisplay:10.37,2013-04-14 08:58:00,
2013-04-14 10:13:00,48.6,48.0,29.47,SW,225,6.0,6.0,98,0.00,CLR,,0.00,WeatherDisplay:10.37,2013-04-14 09:13:00,
2013-04-14 10:28:00,48.6,48.0,29.47,West,266,2.0,6.0,98,0.00,CLR,,0.00,WeatherDisplay:10.37,2013-04-14 09:28:00,
2013-04-14 10:43:00,48.6,48.0,29.47,WSW,244,5.0,10.0,98,0.00,CLR,,0.00,WeatherDisplay:10.37,2013-04-14 09:43:00,
2013-04-14 10:58:00,48.6,48.0,29.50,SSW,197,2.0,6.0,98,0.00,CLR,,0.00,WeatherDisplay:10.37,2013-04-14 09:58:00,
2013-04-14 11:13:00,48.7,48.2,29.50,SSW,201,2.0,5.0,98,0.00,CLR,,0.00,WeatherDisplay:10.37,2013-04-14 10:13:00,
2013-04-14 11:28:00,50.9,50.4,29.50,SSW,210,5.0,6.0,98,0.00,CLR,,0.00,WeatherDisplay:10.37,2013-04-14 10:28:00,
2013-04-14 11:43:00,50.9,50.4,29.50,South,184,3.0,7.0,98,0.00,CLR,,0.00,WeatherDisplay:10.37,2013-04-14 10:43:00,
2013-04-14 11:58:00,53.2,52.4,29.50,SSW,207,6.0,13.0,97,0.00,CLR,,0.00,WeatherDisplay:10.37,2013-04-14 10:58:00,
2013-04-14 12:13:00,55.0,52.4,29.50,SW,224,6.0,8.0,91,0.00,CLR,,0.00,WeatherDisplay:10.37,2013-04-14 11:13:00,
2013-04-14 12:28:00,57.0,50.9,29.50,South,190,5.0,14.0,80,0.00,CLR,,0.00,WeatherDisplay:10.37,2013-04-14 11:28:00,
2013-04-14 12:43:00,57.2,46.3,29.50,SSW,200,13.0,20.0,67,0.00,CLR,,0.00,WeatherDisplay:10.37,2013-04-14 11:43:00,
2013-04-14 12:58:00,55.4,43.8,29.50,South,180,22.0,22.0,65,0.00,CLR,,0.00,WeatherDisplay:10.37,2013-04-14 11:58:00,
2013-04-14 13:13:00,56.2,45.4,29.50,SSW,205,12.0,22.0,67,0.00,CLR,,0.00,WeatherDisplay:10.37,2013-04-14 12:13:00,
2013-04-14 13:28:00,56.9,44.9,29.50,WSW,247,10.0,18.0,64,0.00,CLR,,0.00,WeatherDisplay:10.37,2013-04-14 12:28:00,
2013-04-14 13:43:00,55.9,43.9,29.50,SSW,203,9.0,10.0,64,0.00,CLR,,0.00,WeatherDisplay:10.37,2013-04-14 12:43:00,
2013-04-14 13:58:00,55.0,44.7,29.50,SW,221,9.0,14.0,68,0.00,CLR,,0.00,WeatherDisplay:10.37,2013-04-14 12:58:00,
2013-04-14 14:13:00,55.8,45.4,29.50,SW,217,7.0,15.0,68,0.00,CLR,,0.00,WeatherDisplay:10.37,2013-04-14 13:13:00,
2013-04-14 14:28:00,56.1,45.3,29.50,SSE,157,23.0,23.0,67,0.00,CLR,,0.00,WeatherDisplay:10.37,2013-04-14 13:28:00,
2013-04-14 14:43:00,55.4,45.0,29.50,SSW,197,12.0,23.0,68,0.00,CLR,,0.00,WeatherDisplay:10.37,2013-04-14 13:43:00,
2013-04-14 14:58:00,55.9,46.3,29.50,SW,216,14.0,22.0,70,0.00,CLR,,0.00,WeatherDisplay:10.37,2013-04-14 13:58:00,
2013-04-14 15:13:00,56.0,45.6,29.50,East,94,23.0,23.0,68,0.00,CLR,,0.00,WeatherDisplay:10.37,2013-04-14 14:13:00,
2013-04-14 15:28:00,55.0,45.4,29.50,SW,215,5.0,23.0,70,0.00,CLR,,0.00,WeatherDisplay:10.37,2013-04-14 14:28:00,
2013-04-14 15:43:00,55.0,45.4,29.50,South,186,15.0,15.0,70,0.00,CLR,,0.00,WeatherDisplay:10.37,2013-04-14 14:43:00,
2013-04-14 15:58:00,54.7,45.5,29.50,SSW,211,12.0,18.0,71,0.00,CLR,,0.00,WeatherDisplay:10.37,2013-04-14 14:58:00,
2013-04-14 16:13:00,54.7,45.8,29.50,South,185,15.0,27.0,72,0.00,CLR,,0.00,WeatherDisplay:10.37,2013-04-14 15:13:00,
2013-04-14 16:28:00,54.3,45.5,29.47,SSW,192,7.0,24.0,72,0.00,CLR,,0.00,WeatherDisplay:10.37,2013-04-14 15:28:00,
2013-04-14 16:43:00,54.1,45.7,29.47,SSW,199,9.0,23.0,73,0.00,CLR,,0.00,WeatherDisplay:10.37,2013-04-14 15:43:00,
2013-04-14 16:58:00,54.1,45.7,29.47,South,191,15.0,23.0,73,0.00,CLR,,0.00,WeatherDisplay:10.37,2013-04-14 15:58:00,
2013-04-14 17:13:00,54.3,45.8,29.47,SSW,193,14.0,20.0,73,0.00,CLR,,0.00,WeatherDisplay:10.37,2013-04-14 16:13:00,
2013-04-14 17:28:00,54.3,45.8,29.47,South,185,13.0,27.0,73,0.00,CLR,,0.00,WeatherDisplay:10.37,2013-04-14 16:28:00,
2013-04-14 17:43:00,54.5,45.7,29.47,SSW,200,12.0,25.0,72,0.00,CLR,,0.00,WeatherDisplay:10.37,2013-04-14 16:43:00,
2013-04-14 17:58:00,54.5,45.7,29.47,SSW,207,20.0,26.0,72,0.00,CLR,,0.00,WeatherDisplay:10.37,2013-04-14 16:58:00,
2013-04-14 18:13:00,54.2,45.4,29.47,South,169,12.0,23.0,72,0.00,CLR,,0.00,WeatherDisplay:10.37,2013-04-14 17:13:00,
2013-04-14 18:28:00,54.0,45.1,29.47,South,187,16.0,23.0,72,0.00,CLR,,0.00,WeatherDisplay:10.37,2013-04-14 17:28:00,
2013-04-14 18:43:00,53.8,45.3,29.47,SSE,161,5.0,22.0,73,0.00,CLR,,0.00,WeatherDisplay:10.37,2013-04-14 17:43:00,
2013-04-14 18:58:00,53.4,45.0,29.47,SSE,161,13.0,20.0,73,0.00,CLR,,0.00,WeatherDisplay:10.37,2013-04-14 17:58:00,
2013-04-14 19:13:00,53.1,45.0,29.47,SW,233,6.0,26.0,74,0.00,CLR,,0.00,WeatherDisplay:10.37,2013-04-14 18:13:00,
2013-04-14 19:28:00,52.7,45.0,29.47,South,186,16.0,16.0,75,0.00,CLR,,0.00,WeatherDisplay:10.37,2013-04-14 18:28:00,
2013-04-14 19:43:00,52.3,45.0,29.47,South,174,25.0,26.0,76,0.00,CLR,,0.00,WeatherDisplay:10.37,2013-04-14 18:43:00,
2013-04-14 19:58:00,52.3,45.3,29.47,South,189,22.0,26.0,77,0.00,CLR,,0.00,WeatherDisplay:10.37,2013-04-14 18:58:00,
2013-04-14 20:13:00,52.0,45.3,29.47,South,172,10.0,22.0,78,0.00,CLR,,0.00,WeatherDisplay:10.37,2013-04-14 19:13:00,
2013-04-14 20:28:00,52.0,45.3,29.47,South,188,21.0,21.0,78,0.00,CLR,,0.00,WeatherDisplay:10.37,2013-04-14 19:28:00,
2013-04-14 20:43:00,52.2,45.2,29.47,South,183,17.0,26.0,77,0.00,CLR,,0.00,WeatherDisplay:10.37,2013-04-14 19:43:00,
2013-04-14 20:58:00,52.0,45.3,29.47,South,172,15.0,28.0,78,0.00,CLR,,0.00,WeatherDisplay:10.37,2013-04-14 19:58:00,
2013-04-14 21:13:00,52.0,45.3,29.47,South,175,9.0,17.0,78,0.00,CLR,,0.00,WeatherDisplay:10.37,2013-04-14 20:13:00,
2013-04-14 21:28:00,51.6,45.7,29.50,SSW,194,6.0,26.0,80,0.00,CLR,,0.00,WeatherDisplay:10.37,2013-04-14 20:28:00,
2013-04-14 21:43:00,51.4,45.8,29.50,SW,214,25.0,26.0,81,0.00,CLR,,0.00,WeatherDisplay:10.37,2013-04-14 20:43:00,
2013-04-14 21:58:00,51.3,46.0,29.50,SSW,193,18.0,28.0,82,0.00,CLR,,0.00,WeatherDisplay:10.37,2013-04-14 20:58:00,
2013-04-14 22:13:00,51.3,46.0,29.50,South,186,24.0,24.0,82,0.00,CLR,,0.00,WeatherDisplay:10.37,2013-04-14 21:13:00,
2013-04-14 22:28:00,51.3,46.0,29.50,South,183,13.0,30.0,82,0.00,CLR,,0.00,WeatherDisplay:10.37,2013-04-14 21:28:00,
2013-04-14 22:43:00,51.3,46.0,29.50,South,182,14.0,24.0,82,0.00,CLR,,0.00,WeatherDisplay:10.37,2013-04-14 21:43:00,
2013-04-14 22:58:00,51.3,46.0,29.47,SSW,213,12.0,26.0,82,0.00,CLR,,0.00,WeatherDisplay:10.37,2013-04-14 21:58:00,
2013-04-14 23:28:00,51.4,45.1,29.50,SSW,193,6.0,22.0,79,0.00,CLR,,0.00,WeatherDisplay:10.37,2013-04-14 22:28:00,
2013-04-14 23:43:00,51.4,44.8,29.47,SW,214,8.0,18.0,78,0.00,CLR,,0.00,WeatherDisplay:10.37,2013-04-14 22:43:00,
2013-04-14 23:58:00,51.4,44.1,29.47,SSW,203,7.0,25.0,76,0.00,CLR,,0.00,WeatherDisplay:10.37,2013-04-14 22:58:00,